This is the latest recevied weather packets stored in our database for station/object KY4OP-13. If no packets are shown the sender has not sent any weather packets the latest 10 day(s).
| Time | Temp. | Humidity | Pressure | Rain* | Wind** | Luminosity | Snow |
|---|---|---|---|---|---|---|---|
| 1778035600 | 18.33° C | 54% | 1013.1 hPa | 0 mm | - | - | - |
| 1778035296 | 18.89° C | 52% | 1013.5 hPa | 0 mm | - | - | - |
| 1778034992 | 19.44° C | 51% | 1013.4 hPa | 0 mm | - | - | - |
| 1778034690 | 19.44° C | 51% | 1013.5 hPa | 0 mm | - | - | - |
| 1778034387 | 19.44° C | 50% | 1013.4 hPa | 0 mm | - | - | - |
| 1778034084 | 20° C | 49% | 1013.3 hPa | 0 mm | - | - | - |
| 1778033782 | 20° C | 48% | 1013.3 hPa | 0 mm | - | - | - |
| 1778033479 | 20.56° C | 47% | 1013.2 hPa | 0 mm | - | - | - |
| 1778033176 | 20.56° C | 47% | 1013.3 hPa | 0 mm | - | - | - |
| 1778032874 | 21.11° C | 46% | 1013.3 hPa | 0 mm | - | - | - |
| 1778032571 | 20.56° C | 47% | 1013.2 hPa | 0 mm | - | - | - |
| 1778032268 | 20.56° C | 48% | 1013.1 hPa | 0 mm | - | - | - |
| 1778031966 | 20.56° C | 47% | 1013.3 hPa | 0 mm | - | - | - |
| 1778031661 | 21.11° C | 46% | 1013.3 hPa | 0 mm | - | - | - |
| 1778031359 | 21.67° C | 45% | 1013.2 hPa | 0 mm | - | - | - |
| 1778031055 | 21.67° C | 44% | 1013.1 hPa | 0 mm | - | - | - |
| 1778030752 | 21.67° C | 43% | 1013.1 hPa | 0 mm | - | - | - |
| 1778030448 | 21.67° C | 44% | 1013.1 hPa | 0 mm | - | - | - |
| 1778030147 | 21.67° C | 43% | 1013 hPa | 0 mm | - | - | - |
| 1778029843 | 21.67° C | 43% | 1013.1 hPa | 0 mm | - | - | - |
| 1778029542 | 21.67° C | 44% | 1013 hPa | 0 mm | - | - | - |
| 1778029238 | 21.11° C | 44% | 1013 hPa | 0 mm | - | - | - |
| 1778028935 | 21.67° C | 44% | 1012.9 hPa | 0 mm | - | - | - |
| 1778028631 | 22.22° C | 43% | 1012.8 hPa | 0 mm | - | - | - |
| 1778028329 | 22.22° C | 41% | 1012.7 hPa | 0 mm | - | - | - |
* Rain latest hour (hover to see other rain measurements)
** Current wind speed in m/s (hover to see current wind gust speed)